WIF6V ENZV-EGPD

Flight info

Callsign WIF6V
Flight time 0h 38m
Altitude 24000
Route LAPOT P600 KLONN DCT OVDAN P600 ADN
Aircraft DH8B/M-SDFGR/S

Departure

Time 2026-04-23 14:40
Airport Stavanger Airport, Sola (ENZV)

Arrival

Time 2026-04-23 15:18
Airport Aberdeen International Airport (EGPD)
Time Latitude Longitude Altitude Speed Heading
2026-04-23 14:35 58.88029 5.62655 21 ft 0 kts 16°
2026-04-23 14:38 58.88019 5.62694 24 ft 11 kts 143°
2026-04-23 14:38 58.87985 5.62877 24 ft 18 kts 91°
2026-04-23 14:38 58.87972 5.63150 26 ft 24 kts 107°
2026-04-23 14:38 58.87904 5.63334 27 ft 17 kts 198°
2026-04-23 14:39 58.87765 5.63303 27 ft 23 kts 154°
2026-04-23 14:39 58.87712 5.63567 29 ft 24 kts 107°
2026-04-23 14:39 58.87694 5.63781 30 ft 5 kts
2026-04-23 14:39 58.87729 5.63780 29 ft 32 kts 359°
2026-04-23 14:40 58.88298 5.63766 28 ft 119 kts 359°
2026-04-23 14:40 58.89211 5.63738 564 ft 133 kts 352°
2026-04-23 14:40 58.90171 5.63660 1286 ft 141 kts 349°
2026-04-23 14:40 58.90990 5.62619 1990 ft 155 kts 307°
2026-04-23 14:41 58.91098 5.60388 2719 ft 186 kts 263°
2026-04-23 14:41 58.90495 5.58084 3484 ft 199 kts 246°
2026-04-23 14:41 58.89654 5.55943 4231 ft 196 kts 250°
2026-04-23 14:41 58.89171 5.53578 4985 ft 185 kts 268°
2026-04-23 14:42 58.88975 5.51982 5479 ft 185 kts 268°
2026-04-23 14:42 58.88502 5.48756 6473 ft 190 kts 263°
2026-04-23 14:42 58.88079 5.46317 7198 ft 192 kts 262°
2026-04-23 14:42 58.87646 5.43861 7919 ft 193 kts 262°
2026-04-23 14:43 58.87219 5.41387 8651 ft 195 kts 261°
2026-04-23 14:43 58.86789 5.38891 9405 ft 197 kts 260°
2026-04-23 14:43 58.86496 5.37219 9915 ft 198 kts 260°
2026-04-23 14:43 58.86050 5.34690 10656 ft 199 kts 261°
2026-04-23 14:44 58.85596 5.32153 11365 ft 200 kts 258°
2026-04-23 14:44 58.85155 5.29589 12092 ft 202 kts 260°
2026-04-23 14:44 58.84682 5.27022 12839 ft 203 kts 258°
2026-04-23 14:44 58.84216 5.24432 13607 ft 204 kts 259°
2026-04-23 14:45 58.83744 5.21839 14363 ft 205 kts 256°
2026-04-23 14:45 58.83291 5.19206 15040 ft 207 kts 260°
2026-04-23 14:45 58.82825 5.16564 15777 ft 208 kts 255°
2026-04-23 14:45 58.82362 5.13944 16479 ft 210 kts 255°
2026-04-23 14:46 58.81892 5.11247 17213 ft 213 kts 255°
2026-04-23 14:46 58.81412 5.08523 17990 ft 214 kts 256°
2026-04-23 14:46 58.80924 5.05806 18768 ft 214 kts 255°
2026-04-23 14:46 58.80441 5.03070 19454 ft 216 kts 254°
2026-04-23 14:47 58.79966 5.00362 20177 ft 215 kts 254°
2026-04-23 14:47 58.79476 4.97629 20903 ft 215 kts 253°
2026-04-23 14:47 58.78986 4.94881 21641 ft 217 kts 252°
2026-04-23 14:47 58.78491 4.92097 22390 ft 219 kts 253°
2026-04-23 14:48 58.78000 4.89337 23144 ft 222 kts 251°
2026-04-23 14:48 58.77489 4.86509 23930 ft 224 kts 251°
2026-04-23 14:48 58.76973 4.83610 24378 ft 239 kts 251°
2026-04-23 14:48 58.76407 4.80435 24430 ft 262 kts 251°
2026-04-23 14:49 58.75782 4.76973 24460 ft 280 kts 251°
2026-04-23 14:49 58.75143 4.73411 24495 ft 290 kts 251°
2026-04-23 14:49 58.74475 4.69682 24537 ft 299 kts 251°
2026-04-23 14:49 58.73788 4.65854 24571 ft 305 kts 251°
2026-04-23 14:50 58.73085 4.61952 24591 ft 309 kts 251°
2026-04-23 14:50 58.72382 4.58052 24599 ft 308 kts 251°
2026-04-23 14:50 58.71677 4.54156 24593 ft 308 kts 251°
2026-04-23 14:50 58.70985 4.50343 24582 ft 307 kts 251°
2026-04-23 14:51 58.70273 4.46434 24550 ft 309 kts 251°
2026-04-23 14:51 58.69555 4.42500 24498 ft 315 kts 251°
2026-04-23 14:51 58.68838 4.38575 24455 ft 309 kts 250°
2026-04-23 14:51 58.68122 4.34653 24444 ft 309 kts 250°
2026-04-23 14:52 58.67419 4.30804 24438 ft 309 kts 250°
2026-04-23 14:52 58.66699 4.26900 24445 ft 309 kts 250°
2026-04-23 14:52 58.65971 4.22989 24441 ft 311 kts 250°
2026-04-23 14:52 58.65242 4.19083 24442 ft 309 kts 250°
2026-04-23 14:53 58.64520 4.15209 24444 ft 310 kts 250°
2026-04-23 14:53 58.63794 4.11315 24439 ft 308 kts 250°
2026-04-23 14:53 58.63066 4.07418 24441 ft 310 kts 250°
2026-04-23 14:53 58.62343 4.03565 24439 ft 311 kts 250°
2026-04-23 14:54 58.61608 3.99659 24448 ft 311 kts 250°
2026-04-23 14:54 58.60874 3.95769 24448 ft 310 kts 250°
2026-04-23 14:54 58.60138 3.91885 24449 ft 309 kts 250°
2026-04-23 14:54 58.59397 3.87993 24447 ft 310 kts 250°
2026-04-23 14:55 58.58657 3.84113 24450 ft 310 kts 250°
2026-04-23 14:55 58.57919 3.80201 24448 ft 310 kts 250°
2026-04-23 14:55 58.57197 3.76358 24447 ft 310 kts 250°
2026-04-23 14:55 58.56454 3.72466 24454 ft 311 kts 249°
2026-04-23 14:56 58.55704 3.68573 24454 ft 312 kts 249°
2026-04-23 14:56 58.54966 3.64681 24458 ft 311 kts 250°
2026-04-23 14:56 58.54227 3.60769 24460 ft 312 kts 250°
2026-04-23 14:56 58.53479 3.56883 24462 ft 311 kts 249°
2026-04-23 14:57 58.52726 3.52996 24461 ft 311 kts 249°
2026-04-23 14:57 58.51992 3.49154 24468 ft 311 kts 250°
2026-04-23 14:57 58.51248 3.45259 24469 ft 311 kts 249°
2026-04-23 14:57 58.50496 3.41376 24470 ft 312 kts 249°
2026-04-23 14:58 58.49738 3.37489 24469 ft 311 kts 249°
2026-04-23 14:58 58.48987 3.33598 24467 ft 311 kts 249°
2026-04-23 14:58 58.48241 3.29723 24469 ft 311 kts 249°
2026-04-23 14:58 58.47491 3.25877 24470 ft 311 kts 249°
2026-04-23 14:59 58.46728 3.21990 24478 ft 312 kts 249°
2026-04-23 14:59 58.45972 3.18113 24478 ft 311 kts 249°
2026-04-23 14:59 58.45219 3.14233 24476 ft 311 kts 249°
2026-04-23 14:59 58.44460 3.10365 24481 ft 312 kts 250°
2026-04-23 15:00 58.43683 3.06439 24466 ft 315 kts 249°
2026-04-23 15:00 58.42918 3.02506 24467 ft 316 kts 249°
2026-04-23 15:00 58.42149 2.98637 24469 ft 315 kts 249°
2026-04-23 15:00 58.41371 2.94737 24480 ft 316 kts 249°
2026-04-23 15:01 58.40602 2.90819 24481 ft 315 kts 249°
2026-04-23 15:01 58.39828 2.86884 24482 ft 316 kts 249°
2026-04-23 15:01 58.39043 2.82963 24483 ft 316 kts 249°
2026-04-23 15:01 58.38288 2.79073 24484 ft 316 kts 250°
2026-04-23 15:02 58.37578 2.75129 24487 ft 316 kts 251°
2026-04-23 15:02 58.36854 2.71167 24498 ft 315 kts 250°
2026-04-23 15:02 58.36096 2.67231 24497 ft 316 kts 249°
2026-04-23 15:02 58.35354 2.63333 24499 ft 316 kts 250°
2026-04-23 15:03 58.34626 2.59373 24496 ft 316 kts 250°
2026-04-23 15:03 58.33889 2.55425 24497 ft 316 kts 250°
2026-04-23 15:03 58.33131 2.51489 24499 ft 316 kts 249°
2026-04-23 15:03 58.32390 2.47594 24504 ft 316 kts 250°
2026-04-23 15:04 58.31643 2.43607 24503 ft 321 kts 251°
2026-04-23 15:04 58.30883 2.39614 24504 ft 320 kts 250°
2026-04-23 15:04 58.30116 2.35628 24502 ft 321 kts 250°
2026-04-23 15:04 58.29360 2.31658 24504 ft 320 kts 251°
2026-04-23 15:05 58.29230 2.30975 24503 ft 320 kts 251°
2026-04-23 15:06 58.28710 2.28233 24504 ft 321 kts 251°
2026-04-23 15:06 58.27944 2.24235 24504 ft 322 kts 250°
2026-04-23 15:06 58.27170 2.20228 24515 ft 320 kts 250°
2026-04-23 15:06 58.26316 2.15780 24513 ft 321 kts 250°
2026-04-23 15:07 58.23236 1.99846 24513 ft 321 kts 250°
2026-04-23 15:07 58.20138 1.83954 24525 ft 323 kts 250°
2026-04-23 15:07 58.16994 1.67960 24521 ft 324 kts 250°
2026-04-23 15:07 58.13826 1.51975 24523 ft 324 kts 250°
2026-04-23 15:08 58.10683 1.36240 24529 ft 324 kts 250°
2026-04-23 15:08 58.07475 1.20297 24526 ft 325 kts 250°
2026-04-23 15:08 58.04232 1.04324 24527 ft 325 kts 250°
2026-04-23 15:09 57.97698 0.72508 24530 ft 325 kts 249°
2026-04-23 15:09 57.94402 0.56642 24535 ft 325 kts 249°
2026-04-23 15:09 57.91075 0.40758 24532 ft 326 kts 249°
2026-04-23 15:09 57.87728 0.24897 24536 ft 326 kts 249°
2026-04-23 15:10 57.85494 0.14369 24537 ft 326 kts 249°
2026-04-23 15:10 57.80997 -0.06771 24539 ft 325 kts 250°
2026-04-23 15:10 57.77914 -0.22763 24539 ft 325 kts 250°
2026-04-23 15:10 57.74804 -0.38694 24539 ft 325 kts 250°
2026-04-23 15:11 57.71672 -0.54582 24538 ft 325 kts 250°
2026-04-23 15:11 57.68512 -0.70474 24538 ft 325 kts 250°
2026-04-23 15:11 57.65373 -0.86126 24541 ft 325 kts 250°
2026-04-23 15:11 57.61997 -1.02824 24532 ft 327 kts 250°
2026-04-23 15:12 57.49112 -1.65337 19953 ft 302 kts 250°
2026-04-23 15:12 57.44269 -1.88279 16685 ft 293 kts 249°
2026-04-23 15:12 57.42563 -1.96302 15524 ft 290 kts 250°
2026-04-23 15:12 57.41820 -1.99807 14814 ft 292 kts 249°
2026-04-23 15:13 57.41082 -2.03267 14098 ft 285 kts 249°
2026-04-23 15:13 57.40363 -2.06637 13323 ft 280 kts 249°
2026-04-23 15:13 57.39646 -2.09975 12552 ft 277 kts 249°
2026-04-23 15:13 57.38946 -2.13260 11817 ft 271 kts 249°
2026-04-23 15:14 57.38275 -2.16381 11077 ft 251 kts 249°
2026-04-23 15:14 57.37641 -2.19298 10337 ft 237 kts 249°
2026-04-23 15:14 57.37042 -2.22076 9509 ft 227 kts 249°
2026-04-23 15:14 57.36475 -2.24717 8700 ft 219 kts 249°
2026-04-23 15:15 57.35836 -2.27232 7893 ft 215 kts 233°
2026-04-23 15:15 57.34618 -2.28794 7106 ft 211 kts 199°
2026-04-23 15:15 57.33205 -2.29134 6298 ft 203 kts 177°
2026-04-23 15:15 57.31879 -2.28316 5481 ft 201 kts 156°
2026-04-23 15:16 57.30644 -2.27174 4671 ft 195 kts 160°
2026-04-23 15:16 57.29399 -2.26260 3875 ft 190 kts 162°
2026-04-23 15:16 57.28188 -2.25427 3106 ft 186 kts 162°
2026-04-23 15:16 57.26988 -2.24575 2335 ft 179 kts 160°
2026-04-23 15:17 57.25896 -2.23777 1850 ft 163 kts 159°
2026-04-23 15:17 57.24885 -2.23038 1483 ft 147 kts 161°
2026-04-23 15:17 57.23958 -2.22423 1128 ft 137 kts 159°
2026-04-23 15:17 57.23082 -2.21807 781 ft 132 kts 159°
2026-04-23 15:18 57.22244 -2.21204 565 ft 129 kts 162°
2026-04-23 15:18 57.21420 -2.20663 312 ft 121 kts 159°
2026-04-23 15:18 57.20682 -2.20127 206 ft 104 kts 158°
2026-04-23 15:18 57.20227 -2.19806 202 ft 25 kts 158°
2026-04-23 15:19 57.20131 -2.19742 203 ft 14 kts 190°
2026-04-23 15:19 57.20167 -2.19855 208 ft 15 kts 317°
2026-04-23 15:19 57.20262 -2.20010 204 ft 23 kts 319°
2026-04-23 15:19 57.20374 -2.20197 204 ft 19 kts 290°
2026-04-23 15:20 57.20336 -2.20292 197 ft 13 kts 217°
2026-04-23 15:20 57.20245 -2.20255 199 ft 12 kts 159°
2026-04-23 15:20 57.20181 -2.20252 210 ft 10 kts 226°
2026-04-23 15:20 57.20167 -2.20302 204 ft 0 kts 248°